This is the latest recevied weather packets stored in our database for station/object LX0APE-4. If no packets are shown the sender has not sent any weather packets the latest 10 day(s).
| Time | Temp. | Humidity | Pressure | Rain* | Wind** | Luminosity | Snow |
|---|---|---|---|---|---|---|---|
| 1777733519 | 35° C | 20% | 5013.9 hPa | 0 mm | - | - | - |
| 1777733219 | 35.56° C | 21% | 5014 hPa | 0 mm | - | - | - |
| 1777732919 | 35° C | 20% | 5014.2 hPa | 0 mm | - | - | - |
| 1777732619 | 35° C | 21% | 5014.2 hPa | 0 mm | - | - | - |
| 1777732327 | 34.44° C | 21% | 5014.1 hPa | 0 mm | - | - | - |
| 1777732019 | 34.44° C | 23% | 5014 hPa | 0 mm | - | - | - |
| 1777731719 | 33.89° C | 24% | 5014.3 hPa | 0 mm | - | - | - |
| 1777731419 | 33.89° C | 24% | 5014.4 hPa | 0 mm | - | - | - |
| 1777731119 | 33.89° C | 25% | 5014.4 hPa | 0 mm | - | - | - |
| 1777730519 | 32.78° C | 27% | 5014.6 hPa | 0 mm | - | - | - |
| 1777730219 | 32.22° C | 27% | 5014.6 hPa | 0 mm | - | - | - |
| 1777729919 | 32.22° C | 27% | 5014.6 hPa | 0 mm | - | - | - |
| 1777729619 | 32.22° C | 27% | 5014.7 hPa | 0 mm | - | - | - |
| 1777729319 | 32.22° C | 27% | 5014.9 hPa | 0 mm | - | - | - |
| 1777729024 | 32.22° C | 27% | 5014.8 hPa | 0 mm | - | - | - |
| 1777729019 | 32.22° C | 27% | 5014.8 hPa | 0 mm | - | - | - |
| 1777728719 | 32.78° C | 26% | 5014.9 hPa | 0 mm | - | - | - |
| 1777728419 | 33.33° C | 28% | 5014.9 hPa | 0 mm | - | - | - |
| 1777728120 | 32.78° C | 28% | 5014.8 hPa | 0 mm | - | - | - |
| 1777727820 | 32.78° C | 30% | 5014.9 hPa | 0 mm | - | - | - |
| 1777727519 | 32.78° C | 31% | 5015 hPa | 0 mm | - | - | - |
| 1777727219 | 31.67° C | 32% | 5015.1 hPa | 0 mm | - | - | - |
| 1777726919 | 31.11° C | 33% | 5015.1 hPa | 0 mm | - | - | - |
| 1777726619 | 30.56° C | 33% | 5015.1 hPa | 0 mm | - | - | - |
| 1777726319 | 30° C | 33% | 5015.2 hPa | 0 mm | - | - | - |
* Rain latest hour (hover to see other rain measurements)
** Current wind speed in m/s (hover to see current wind gust speed)